Location: Burbank
(38.7788°N, 114.0429°W)
Time: 03:14:39
(UTC+00:00)

Transit 2A Rocket - Pass Details

Date: 11 May 2026
Orbit: 589 x 893 km, 66.7° (Epoch: 9 June)

Event Time Altitude Azimuth Distance (km) Brightness Sun altitude
Rises 10:52:46 0° 348° (NNW) 3,018 8.5 -16.5°
Reaches altitude 10° 10:56:44 10° 21° (NNE) 2,031 8.1 -15.9°
Maximum altitude 10:58:23 12° 42° (NE) 1,888 8.3 -15.6°
Drops below altitude 10° 11:00:01 10° 64° (ENE) 1,980 8.4 -15.4°
Sets 11:03:43 0° 97° (E) 2,838 8.7 -14.8°
